Location: Fluertsh�userhof
(48.7537°N, 10.3850°E)
Time: 05:47:10
(UTC+00:00)

Cosmos 1844 - Pass Details

Date: 18 September 2020
Orbit: 824 x 866 km, 70.9° (Epoch: 27 October)

Event Time Altitude Azimuth Distance (km) Brightness Sun altitude
Rises 19:26:32 0° 193° (SSW) 3,412 6.7 -20.2°
Reaches altitude 10° 19:29:01 10° 189° (S) 2,475 5.9 -20.6°
Maximum altitude 19:34:34 57° 112° (ESE) 988 3.7 -21.4°
Drops below altitude 10° 19:40:06 10° 35° (NE) 2,463 6.1 -22.2°
Sets 19:42:34 0° 31° (NNE) 3,395 6.8 -22.5°
